Vorticity
4 5 4 4 4 3 3 4 7 7 7 6 5 5 5 5 5 4 4 5 5 5 5 5 5 5 5 5 6 6 6 6 6
7 1 2 2 4 4 3 3 5 7 7 6 6 5 5 5 4 4 4 4 4 4 5 5 5 5 5 5 5 6 7 6 7
3 7 7 2 4 3 3 3 4 5 7 6 6 6 5 4 5 4 4 4 4 4 5 5 5 5 5 5 6 6 6 6 6
3 4 5 1 3 4 3 3 3 4 6 7 6 6 6 6 5 4 5 4 4 5 5 5 5 5 6 6 6 6 6 5 6
6 5 5 0 3 3 3 3 4 3 4 5 6 6 6 6 5 6 5 5 5 5 5 6 6 6 6 6 6 6 7 7 6
5 5 6 5 1 1 2 4 4 4 4 4 5 6 5 6 5 6 5 6 6 6 6 5 6 6 6 6 6 6 6 6 7
4 6 6 4 4 3 4 4 4 5 4 4 4 4 5 5 6 6 5 6 6 7 7 7 6 6 6 7 6 6 7 7 7
2 5 5 7 6 3 2 5 4 5 5 4 4 4 4 4 4 6 5 5 6 6 6 6 6 6 6 6 7 6 7 7 7
9 7 1 2 7 7 5 7 7 4 5 5 6 4 4 3 3 4 5 5 5 6 7 7 7 8 3 7 6 6 7 7 7
7 10 5 4 3 4 9 8 6 8 5 2 4 5 5 4 3 3 4 4 5 6 6 7 7 7 8 8 6 7 8 6 7
4 11 11 15 8 4 5 5 7 5 6 9 9 4 6 6 4 3 2 4 5 5 6 6 7 7 8 8 7 6 6 5 5
6 5 10 5 11 7 4 5 5 3 4 -1 6 4 6 5 4 4 4 5 4 5 6 5 6 7 6 7 6 6 5 5 5
4 3 1 8 5 12 7 3 4 12 7 9 6 9 10 8 8 7 4 3 3 3 6 8 6 7 6 6 6 5 4 5 6
3 6 6 5 8 4 8 9 6 3 6 7 5 5 2 4 11 5 9 2 4 2 2 2 7 5 5 5 5 6 6 6 6
6 6 1 8 9 9 9 7 3 5 3 5 2 2 3 4 6 7 6 11 3 2 6 2 1 4 7 7 5 5 6 5 7
6 6 7 5 8 5 3 7 4 2 1 3 1 2 5 4 7 3 8 9 12 7 7 16 -7 9 7 8 6 3 6 7 6
9 6 9 6 6 4 5 1 2 -4 -1 1 2 7 10 6 6 10 9 -4 15 10 -7 3 4 2 8 3 4 7 5 12 3
8 8 5 6 1 2 9 -0 -4 0 -0 3 5 5 5 13 16 -5 -3 20 6 20 3 -6 14 5 1 7 -5 3 -7 -5 4
11 7 2 5 0 1 5 -3 1 3 3 8 6 9 12 3 6 11 19 21 17 8 22 -4 9 7 9 13 8 5 -2 -1 18
12 7 3 5 3 -2 4 2 5 2 7 8 16 22 20 8 34 -12 11 11 14 -14 20 0 3 1 2 -4 10 -8 20 6 3
Height
3170 3171 3171 3172 3172 3172 3172 3171 3170 3171 3171 3171 3172 3172 3172 3172 3172 3172 3173 3173 3174 3174 3174 3173 3173 3172 3171 3171 3170 3169 3168 3168 3167
3169 3169 3170 3171 3171 3171 3171 3172 3172 3172 3171 3172 3172 3172 3172 3172 3173 3172 3172 3173 3173 3173 3173 3173 3172 3171 3171 3170 3170 3169 3168 3167 3166
3168 3169 3169 3169 3170 3170 3171 3171 3172 3172 3172 3172 3172 3172 3172 3172 3172 3173 3172 3172 3172 3172 3172 3171 3171 3170 3169 3169 3169 3168 3167 3166 3166
3166 3167 3168 3168 3169 3170 3170 3170 3171 3172 3172 3172 3172 3172 3172 3172 3171 3172 3172 3172 3172 3171 3171 3171 3170 3169 3169 3169 3168 3167 3166 3165 3164
3164 3165 3166 3167 3168 3168 3170 3170 3171 3171 3171 3171 3171 3171 3171 3170 3170 3170 3170 3170 3171 3170 3170 3170 3169 3169 3168 3167 3167 3165 3165 3164 3164
3162 3163 3164 3165 3166 3167 3168 3168 3169 3170 3170 3170 3170 3170 3170 3169 3169 3170 3169 3169 3169 3168 3168 3167 3167 3167 3167 3166 3165 3164 3163 3162 3162
3160 3161 3161 3162 3164 3165 3166 3167 3168 3168 3169 3169 3169 3169 3169 3168 3168 3168 3167 3167 3167 3166 3165 3165 3165 3165 3164 3164 3163 3162 3162 3161 3160
3157 3159 3159 3160 3160 3162 3163 3164 3165 3166 3166 3167 3167 3167 3167 3167 3166 3167 3166 3166 3165 3164 3163 3163 3163 3162 3162 3161 3161 3160 3159 3159 3159
3152 3155 3156 3156 3158 3158 3159 3160 3162 3163 3163 3164 3166 3166 3165 3165 3165 3165 3165 3164 3163 3162 3162 3161 3161 3160 3160 3159 3159 3158 3157 3156 3156
3147 3150 3151 3152 3153 3154 3155 3156 3157 3159 3160 3161 3161 3162 3162 3163 3162 3162 3162 3162 3161 3160 3159 3159 3158 3157 3157 3157 3157 3156 3155 3154 3154
3142 3145 3146 3148 3148 3149 3150 3152 3153 3155 3156 3157 3158 3158 3159 3159 3159 3159 3160 3159 3159 3158 3156 3156 3155 3155 3154 3154 3154 3153 3152 3152 3151
3138 3139 3142 3143 3144 3144 3145 3147 3148 3150 3151 3153 3154 3154 3155 3155 3155 3155 3156 3156 3156 3155 3154 3153 3151 3151 3150 3150 3150 3149 3148 3147 3146
3134 3135 3136 3137 3139 3140 3140 3142 3143 3145 3146 3147 3148 3150 3149 3149 3150 3150 3150 3151 3151 3152 3151 3151 3149 3148 3146 3145 3146 3146 3145 3143 3143
3127 3129 3131 3131 3132 3135 3136 3137 3139 3140 3141 3141 3142 3143 3143 3143 3144 3144 3143 3143 3145 3145 3145 3145 3145 3144 3142 3141 3140 3140 3140 3138 3138
3120 3122 3125 3126 3128 3130 3131 3132 3132 3134 3136 3136 3136 3136 3136 3137 3137 3137 3137 3138 3138 3139 3139 3138 3139 3139 3137 3136 3134 3134 3134 3132 3131
3112 3116 3118 3120 3122 3124 3126 3127 3128 3129 3130 3129 3129 3128 3128 3128 3129 3130 3131 3131 3131 3131 3132 3132 3131 3132 3131 3130 3129 3128 3126 3126 3124
3105 3109 3112 3114 3116 3118 3120 3121 3122 3123 3124 3122 3122 3119 3119 3118 3121 3122 3123 3124 3123 3122 3123 3123 3125 3125 3124 3124 3123 3123 3124 3123 3120
3097 3100 3104 3107 3109 3112 3114 3115 3116 3116 3117 3117 3115 3112 3109 3111 3111 3111 3114 3114 3114 3113 3115 3116 3116 3117 3118 3118 3119 3118 3116 3115 3114
3088 3092 3096 3099 3102 3104 3107 3108 3109 3108 3107 3109 3108 3105 3103 3101 3102 3103 3103 3105 3105 3106 3107 3106 3107 3108 3110 3110 3111 3111 3108 3107 3107
3079 3084 3088 3091 3094 3097 3099 3100 3101 3100 3099 3097 3096 3097 3095 3095 3092 3092 3095 3096 3097 3097 3098 3096 3096 3099 3100 3102 3103 3102 3100 3099 3097